Regional Weather Roundup
Issued by NWS

Home | Current Version | Previous Version | Graphics & Text | Print | Product List | Glossary On
Versions: 1 2 3 4 5 6 7 8 9 10 11 12 13 14 15 16 17 18 19 20 21 22 23 24 25 26 27 28 29 30 31 32 33 34 35 36 37 38 39 40 41 42 43 44 45 46 47 48 49 50
760
ASUS44 KMEG 231610
RWRTN
TENNESSEE HOURLY STATE WEATHER ROUNDUP
NATIONAL WEATHER SERVICE MEMPHIS TN
1000 AM CST MON JAN 23 2017

TNZ002-004-019-021-049-052-054-088>092-231700-
WEST TENNESSEE

CITY           SKY/WX    TMP DP  RH WIND       PRES   REMARKS
MEMPHIS INTL   MOSUNNY   48  39  71 NW16      29.81R
NWS MEMPHIS      N/A     47 N/A N/A MISG        N/A
JACKSON        PTSUNNY   45  38  76 NW16      29.78R
DYERSBURG      CLOUDY    45  36  70 N16G23    29.80S
UNION CITY     CLOUDY    43  43 100 NW15      29.76S
PARIS          CLOUDY    39  36  87 CALM      29.75R
HUNTINGDON     CLOUDY    45  37  76 NW12G18   29.75R
$$

TNZ008-025-027-028-033-062-065-066-231700-
NORTH MIDDLE TENNESSEE

CITY           SKY/WX    TMP DP  RH WIND       PRES   REMARKS
NASHVILLE      CLOUDY    47  41  80 NW15G25   29.64R
PORTLAND       CLOUDY    45  43  93 NW16G25   29.63R FOG
CLARKSVILLE    CLOUDY    45  38  76 NW20G29   29.69R
SMYRNA         CLOUDY    47  43  86 NW18G26   29.64R
GALLATIN       CLOUDY    46  43  87 NW15G24   29.65R FOG
CROSSVILLE     CLOUDY    49  46  90 NW18      29.46R FOG
$$

TNZ061-075-076-078-094-096-097-231700-
SOUTH MIDDLE TENNESSEE

CITY           SKY/WX    TMP DP  RH WIND       PRES   REMARKS
TULLAHOMA      CLOUDY    45  43  93 NW20      29.59R
WINCHESTER     CLOUDY    46  45  93 N15       29.57R
MCMINNVILLE    PTSUNNY   48  48 100 NW15        N/A
COLUMBIA       CLOUDY    48  48 100 NW9       29.64R
SHELBYVILLE    CLOUDY    48  45  87 NW17      29.62R
$$

TNZ017-018-042-046-047-231700-
NORTHEAST TENNESSEE

CITY           SKY/WX    TMP DP  RH WIND       PRES   REMARKS
TRI CITIES     LGT RAIN  52  50  93 N8        29.31R
ELIZABETHTON   DRIZZLE   50  48  93 CALM      29.30R
$$

TNZ012-013-036-069-073-074-231700-
CENTRAL EAST TENNESSEE

CITY           SKY/WX    TMP DP  RH WIND       PRES   REMARKS
KNOXVILLE      LGT RAIN  51  49  92 SW5       29.37R
OAK RIDGE      CLOUDY    57  49  74 N8        29.39R
GATLINBURG     CLOUDY    48  48 100 W7        29.36R
MORRISTOWN     CLOUDY    54  52  94 NW9       29.34R
JACKSBORO      PTSUNNY   54  52  94 VRB5      29.42R FOG
$$

TNZ083-085-099-231700-
SOUTHEAST TENNESSEE

CITY           SKY/WX    TMP DP  RH WIND       PRES   REMARKS
CHATTANOOGA    CLOUDY    55  46  71 NW17G26   29.47R
$$

SKY/WX REPORTED AS FAIR MEANS FEW OR NO CLOUDS BELOW
12 THOUSAND FEET.





USA.gov is the U.S. government's official web portal to all federal, state and local government web resources and services.